Terminal Aerodrome Forecast
Issued by NWS

Home | Current Version | Previous Version | Text Only | Print | Product List | Glossary On
Versions: 1 2 3 4 5 6 7 8 9 10 11 12 13 14 15 16 17 18 19 20 21 22 23 24 25
000
FTUS43 KAPX 252333
TAFPLN
TAF
KPLN 252333Z 2600/2624 24007KT P6SM OVC017
     FM260200 VRB03KT P6SM OVC018
     FM261700 23005KT 6SM -DZ BR OVC014=

USA.gov is the U.S. government's official web portal to all federal, state and local government web resources and services.